Time,TemperatureF,DewpointF,PressureIn,WindDirection,WindDirectionDegrees,WindSpeedMPH,WindSpeedGustMPH,Humidity,HourlyPrecipIn,Conditions,Clouds,dailyrainin,SolarRadiationWatts/m^2,SoftwareType,DateUTC
2013-01-07 00:03:00,25.8,24.0,30.02,NW,306,2.0,6.0,93,0.00,,,0.00,0,weatherlink.com 1.10,2013-01-07 05:03:00,
2013-01-07 00:18:00,26.8,25.0,30.02,NW,305,1.0,6.0,94,0.00,,,0.00,0,weatherlink.com 1.10,2013-01-07 05:18:00,
2013-01-07 00:34:00,27.5,26.0,30.02,NW,305,4.0,5.0,92,0.00,,,0.00,0,weatherlink.com 1.10,2013-01-07 05:34:00,
2013-01-07 00:49:00,27.7,26.0,30.02,NW,325,2.0,3.0,91,0.00,,,0.00,0,weatherlink.com 1.10,2013-01-07 05:49:00,
2013-01-07 01:06:00,27.5,25.0,30.04,NNW,340,1.0,3.0,90,0.00,,,0.00,0,weatherlink.com 1.10,2013-01-07 06:06:00,
2013-01-07 01:22:00,26.9,24.0,30.04,NNW,329,3.0,7.0,90,0.00,,,0.00,0,weatherlink.com 1.10,2013-01-07 06:22:00,
2013-01-07 01:38:00,26.6,24.0,30.05,NW,315,0.0,7.0,90,0.00,,,0.00,0,weatherlink.com 1.10,2013-01-07 06:38:00,
2013-01-07 01:54:00,26.2,24.0,30.05,WNW,302,1.0,2.0,90,0.00,,,0.00,0,weatherlink.com 1.10,2013-01-07 06:54:00,
2013-01-07 02:11:00,25.7,23.0,30.06,WNW,298,0.0,2.0,90,0.00,,,0.00,0,weatherlink.com 1.10,2013-01-07 07:11:00,
2013-01-07 02:27:00,25.0,23.0,30.07,WNW,298,0.0,0.0,90,0.00,,,0.00,0,weatherlink.com 1.10,2013-01-07 07:27:00,
2013-01-07 02:43:00,24.5,22.0,30.07,WNW,298,0.0,0.0,90,0.00,,,0.00,0,weatherlink.com 1.10,2013-01-07 07:43:00,
2013-01-07 02:59:00,24.0,22.0,30.07,WNW,298,0.0,1.0,91,0.00,,,0.00,0,weatherlink.com 1.10,2013-01-07 07:59:00,
2013-01-07 03:14:00,23.5,21.0,30.07,WNW,298,0.0,1.0,91,0.00,,,0.00,0,weatherlink.com 1.10,2013-01-07 08:14:00,
2013-01-07 03:31:00,23.2,21.0,30.07,WNW,298,0.0,0.0,92,0.00,,,0.00,0,weatherlink.com 1.10,2013-01-07 08:31:00,
2013-01-07 03:47:00,22.8,21.0,30.07,WNW,298,0.0,0.0,92,0.00,,,0.00,0,weatherlink.com 1.10,2013-01-07 08:47:00,
2013-01-07 04:03:00,22.8,21.0,30.08,WNW,298,0.0,0.0,93,0.00,,,0.00,0,weatherlink.com 1.10,2013-01-07 09:03:00,
2013-01-07 04:19:00,23.1,22.0,30.09,North,355,0.0,2.0,94,0.00,,,0.00,0,weatherlink.com 1.10,2013-01-07 09:19:00,
2013-01-07 04:34:00,24.2,23.0,30.10,NW,320,1.0,5.0,96,0.00,,,0.00,0,weatherlink.com 1.10,2013-01-07 09:34:00,
2013-01-07 04:51:00,25.5,25.0,30.10,North,350,0.0,2.0,96,0.00,,,0.00,0,weatherlink.com 1.10,2013-01-07 09:51:00,
2013-01-07 05:07:00,26.0,25.0,30.11,WNW,289,0.0,2.0,96,0.00,,,0.00,0,weatherlink.com 1.10,2013-01-07 10:07:00,
2013-01-07 05:24:00,26.0,25.0,30.12,SW,231,0.0,1.0,96,0.00,,,0.00,0,weatherlink.com 1.10,2013-01-07 10:24:00,
2013-01-07 05:40:00,26.0,25.0,30.13,SW,231,0.0,2.0,96,0.00,,,0.00,0,weatherlink.com 1.10,2013-01-07 10:40:00,
2013-01-07 05:56:00,26.9,26.0,30.14,NNW,337,1.0,4.0,96,0.00,,,0.00,0,weatherlink.com 1.10,2013-01-07 10:56:00,
2013-01-07 06:11:00,28.0,27.0,30.15,NW,307,3.0,5.0,97,0.00,,,0.00,0,weatherlink.com 1.10,2013-01-07 11:11:00,
2013-01-07 06:27:00,28.7,28.0,30.16,WNW,297,3.0,4.0,96,0.00,,,0.00,0,weatherlink.com 1.10,2013-01-07 11:27:00,
2013-01-07 06:44:00,30.4,28.0,30.16,NW,306,3.0,10.0,91,0.00,,,0.00,0,weatherlink.com 1.10,2013-01-07 11:44:00,
2013-01-07 07:00:00,30.8,28.0,30.17,NNW,332,1.0,7.0,88,0.00,,,0.00,0,weatherlink.com 1.10,2013-01-07 12:00:00,
2013-01-07 07:16:00,30.1,27.0,30.18,North,355,6.0,7.0,87,0.00,,,0.00,0,weatherlink.com 1.10,2013-01-07 12:16:00,
2013-01-07 07:32:00,30.8,27.0,30.18,NW,313,4.0,9.0,85,0.00,,,0.00,11,weatherlink.com 1.10,2013-01-07 12:32:00,
2013-01-07 07:49:00,31.7,27.0,30.20,NW,306,5.0,11.0,81,0.00,,,0.00,19,weatherlink.com 1.10,2013-01-07 12:49:00,
2013-01-07 08:04:00,32.4,26.0,30.21,NW,321,3.0,14.0,78,0.00,,,0.00,40,weatherlink.com 1.10,2013-01-07 13:04:00,
2013-01-07 08:20:00,32.8,26.0,30.21,North,350,6.0,12.0,75,0.00,,,0.00,81,weatherlink.com 1.10,2013-01-07 13:20:00,
2013-01-07 08:36:00,33.1,26.0,30.23,NNW,333,8.0,13.0,74,0.00,,,0.00,116,weatherlink.com 1.10,2013-01-07 13:36:00,
2013-01-07 08:53:00,33.2,26.0,30.24,NNW,329,11.0,21.0,74,0.00,,,0.00,65,weatherlink.com 1.10,2013-01-07 13:53:00,
2013-01-07 09:09:00,33.0,26.0,30.26,NW,318,7.0,16.0,75,0.00,,,0.00,237,weatherlink.com 1.10,2013-01-07 14:09:00,
2013-01-07 09:25:00,32.7,25.0,30.27,NNW,329,7.0,16.0,73,0.00,,,0.00,264,weatherlink.com 1.10,2013-01-07 14:25:00,
2013-01-07 09:41:00,32.3,25.0,30.28,North,355,7.0,13.0,74,0.00,,,0.00,244,weatherlink.com 1.10,2013-01-07 14:41:00,
2013-01-07 09:57:00,32.2,25.0,30.29,NNW,340,6.0,12.0,74,0.00,,,0.00,320,weatherlink.com 1.10,2013-01-07 14:57:00,
2013-01-07 10:13:00,32.4,25.0,30.31,North,5,8.0,10.0,73,0.00,,,0.00,132,weatherlink.com 1.10,2013-01-07 15:13:00,
2013-01-07 10:29:00,31.6,24.0,30.31,North,349,4.0,17.0,74,0.00,,,0.00,105,weatherlink.com 1.10,2013-01-07 15:29:00,
2013-01-07 11:01:00,32.1,24.0,30.32,WNW,293,7.0,13.0,73,0.00,,,0.00,369,weatherlink.com 1.10,2013-01-07 16:01:00,
2013-01-07 11:18:00,31.8,24.0,30.31,NW,316,7.0,15.0,73,0.00,,,0.00,381,weatherlink.com 1.10,2013-01-07 16:18:00,
2013-01-07 11:34:00,32.4,24.0,30.32,North,350,5.0,10.0,71,0.00,,,0.00,388,weatherlink.com 1.10,2013-01-07 16:34:00,
2013-01-07 11:49:00,32.4,24.0,30.31,NNW,346,7.0,15.0,70,0.00,,,0.00,397,weatherlink.com 1.10,2013-01-07 16:49:00,
2013-01-07 12:05:00,31.9,23.0,30.32,North,350,13.0,17.0,70,0.00,,,0.00,397,weatherlink.com 1.10,2013-01-07 17:05:00,
2013-01-07 12:21:00,31.5,23.0,30.32,North,355,8.0,15.0,71,0.00,,,0.00,123,weatherlink.com 1.10,2013-01-07 17:21:00,
2013-01-07 12:38:00,31.4,23.0,30.33,NNW,341,8.0,12.0,70,0.00,,,0.00,69,weatherlink.com 1.10,2013-01-07 17:38:00,
2013-01-07 12:53:00,31.6,23.0,30.33,NW,306,8.0,13.0,70,0.00,,,0.00,42,weatherlink.com 1.10,2013-01-07 17:53:00,
2013-01-07 13:10:00,31.4,22.0,30.33,NNW,329,1.0,10.0,68,0.00,,,0.00,49,weatherlink.com 1.10,2013-01-07 18:10:00,
2013-01-07 13:26:00,31.6,22.0,30.33,North,349,7.0,10.0,67,0.00,,,0.00,42,weatherlink.com 1.10,2013-01-07 18:26:00,
2013-01-07 13:42:00,31.9,22.0,30.34,NW,322,3.0,12.0,66,0.00,,,0.00,39,weatherlink.com 1.10,2013-01-07 18:42:00,
2013-01-07 13:57:00,31.9,22.0,30.34,NNW,347,2.0,13.0,66,0.00,,,0.00,37,weatherlink.com 1.10,2013-01-07 18:57:00,
2013-01-07 14:14:00,31.8,21.0,30.36,North,355,8.0,14.0,64,0.00,,,0.00,40,weatherlink.com 1.10,2013-01-07 19:14:00,
2013-01-07 14:30:00,31.9,20.0,30.36,NW,319,3.0,11.0,62,0.00,,,0.00,33,weatherlink.com 1.10,2013-01-07 19:30:00,
2013-01-07 14:46:00,32.0,21.0,30.36,WNW,284,4.0,11.0,63,0.00,,,0.00,32,weatherlink.com 1.10,2013-01-07 19:46:00,
2013-01-07 15:02:00,32.0,20.0,30.36,NNE,13,5.0,11.0,62,0.00,,,0.00,30,weatherlink.com 1.10,2013-01-07 20:02:00,
2013-01-07 15:18:00,31.9,20.0,30.36,NNW,331,5.0,6.0,62,0.00,,,0.00,28,weatherlink.com 1.10,2013-01-07 20:18:00,
2013-01-07 15:35:00,31.7,20.0,30.37,WNW,298,7.0,8.0,61,0.00,,,0.00,25,weatherlink.com 1.10,2013-01-07 20:35:00,
2013-01-07 15:51:00,31.6,20.0,30.37,NNW,335,2.0,6.0,62,0.00,,,0.00,21,weatherlink.com 1.10,2013-01-07 20:51:00,
2013-01-07 16:06:00,31.4,20.0,30.38,NNW,348,2.0,6.0,62,0.00,,,0.00,16,weatherlink.com 1.10,2013-01-07 21:06:00,
2013-01-07 16:22:00,31.0,20.0,30.39,NW,306,4.0,6.0,63,0.00,,,0.00,11,weatherlink.com 1.10,2013-01-07 21:22:00,
2013-01-07 16:38:00,30.5,20.0,30.39,NNW,340,2.0,4.0,64,0.00,,,0.00,5,weatherlink.com 1.10,2013-01-07 21:38:00,
2013-01-07 16:54:00,29.9,20.0,30.39,NW,326,1.0,2.0,66,0.00,,,0.00,0,weatherlink.com 1.10,2013-01-07 21:54:00,
2013-01-07 17:11:00,29.0,19.0,30.39,NNW,339,0.0,0.0,67,0.00,,,0.00,0,weatherlink.com 1.10,2013-01-07 22:11:00,
2013-01-07 17:27:00,27.9,19.0,30.40,NNW,339,1.0,1.0,68,0.00,,,0.00,0,weatherlink.com 1.10,2013-01-07 22:27:00,
2013-01-07 17:42:00,26.4,19.0,30.39,North,355,0.0,3.0,72,0.00,,,0.00,0,weatherlink.com 1.10,2013-01-07 22:42:00,
2013-01-07 17:58:00,25.6,18.0,30.39,North,355,0.0,2.0,73,0.00,,,0.00,0,weatherlink.com 1.10,2013-01-07 22:58:00,
2013-01-07 18:14:00,24.4,18.0,30.39,ESE,123,0.0,2.0,77,0.00,,,0.00,0,weatherlink.com 1.10,2013-01-07 23:14:00,
2013-01-07 18:31:00,23.8,19.0,30.39,ESE,123,0.0,0.0,80,0.00,,,0.00,0,weatherlink.com 1.10,2013-01-07 23:31:00,
2013-01-07 18:47:00,23.1,18.0,30.39,ESE,123,0.0,2.0,79,0.00,,,0.00,0,weatherlink.com 1.10,2013-01-07 23:47:00,
2013-01-07 19:03:00,22.4,17.0,30.39,ESE,123,3.0,3.0,81,0.00,,,0.00,0,weatherlink.com 1.10,2013-01-08 00:03:00,
2013-01-07 19:19:00,21.7,17.0,30.39,ESE,123,0.0,0.0,82,0.00,,,0.00,0,weatherlink.com 1.10,2013-01-08 00:19:00,
2013-01-07 19:34:00,21.2,17.0,30.39,ESE,123,0.0,0.0,83,0.00,,,0.00,0,weatherlink.com 1.10,2013-01-08 00:34:00,
2013-01-07 19:50:00,20.7,17.0,30.39,ESE,123,0.0,1.0,84,0.00,,,0.00,0,weatherlink.com 1.10,2013-01-08 00:50:00,
2013-01-07 20:07:00,20.1,16.0,30.38,ESE,123,0.0,0.0,85,0.00,,,0.00,0,weatherlink.com 1.10,2013-01-08 01:07:00,
2013-01-07 20:23:00,19.5,16.0,30.39,ESE,123,0.0,0.0,86,0.00,,,0.00,0,weatherlink.com 1.10,2013-01-08 01:23:00,
2013-01-07 20:39:00,19.0,16.0,30.39,ESE,123,0.0,0.0,87,0.00,,,0.00,0,weatherlink.com 1.10,2013-01-08 01:39:00,
2013-01-07 20:55:00,18.5,15.0,30.39,ESE,123,0.0,0.0,86,0.00,,,0.00,0,weatherlink.com 1.10,2013-01-08 01:55:00,
2013-01-07 21:10:00,17.9,15.0,30.38,ESE,123,0.0,2.0,88,0.00,,,0.00,0,weatherlink.com 1.10,2013-01-08 02:10:00,
2013-01-07 21:28:00,17.4,15.0,30.38,ESE,123,0.0,0.0,88,0.00,,,0.00,0,weatherlink.com 1.10,2013-01-08 02:28:00,
2013-01-07 21:43:00,17.0,14.0,30.39,ESE,123,0.0,0.0,88,0.00,,,0.00,0,weatherlink.com 1.10,2013-01-08 02:43:00,
2013-01-07 21:59:00,16.6,14.0,30.39,ESE,123,0.0,2.0,90,0.00,,,0.00,0,weatherlink.com 1.10,2013-01-08 02:59:00,
2013-01-07 22:15:00,16.3,14.0,30.38,ESE,123,0.0,1.0,90,0.00,,,0.00,0,weatherlink.com 1.10,2013-01-08 03:15:00,
2013-01-07 22:31:00,16.1,14.0,30.38,ESE,123,0.0,0.0,91,0.00,,,0.00,0,weatherlink.com 1.10,2013-01-08 03:31:00,
2013-01-07 22:47:00,15.8,14.0,30.38,ESE,123,0.0,2.0,91,0.00,,,0.00,0,weatherlink.com 1.10,2013-01-08 03:47:00,
2013-01-07 23:03:00,15.4,13.0,30.38,ESE,123,0.0,0.0,91,0.00,,,0.00,0,weatherlink.com 1.10,2013-01-08 04:03:00,
2013-01-07 23:19:00,15.3,13.0,30.37,ESE,123,0.0,0.0,91,0.00,,,0.00,0,weatherlink.com 1.10,2013-01-08 04:19:00,
2013-01-07 23:35:00,15.4,14.0,30.37,West,266,0.0,2.0,92,0.00,,,0.00,0,weatherlink.com 1.10,2013-01-08 04:35:00,
2013-01-07 23:51:00,15.5,14.0,30.38,West,266,0.0,1.0,92,0.00,,,0.00,0,weatherlink.com 1.10,2013-01-08 04:51:00,